KF4PPJ Weather Reports


time (UTC)temp
C
wind
direction
speed
KPH
gust
KPH
rain 1hr
cm
rain 24hr
cm
rain mn
cm
humidity
%
barometer
mb
20260902081455 15 155 0.0 0.0 0.00 0.00 0.00 95 1012.4
20260902080949 15 154 0.0 0.0 0.00 0.00 0.00 95 1012.5
20260902080445 15 155 0.0 0.0 0.00 0.00 0.00 95 1012.3
20260902075939 15 152 0.0 0.0 0.00 0.00 0.00 95 1012.6
20260902075436 15 154 0.0 0.0 0.00 0.00 0.00 95 1012.5
20260902074931 15 150 0.0 0.0 0.00 0.00 0.00 95 1012.5
20260902074426 15 158 0.0 0.0 0.00 0.00 0.00 94 1012.4
20260902073921 15 151 0.0 0.0 0.00 0.00 0.00 94 1012.6
20260902073417 15 142 0.0 0.0 0.00 0.00 0.00 94 1012.7
20260902072913 15 155 0.0 0.0 0.00 0.00 0.00 94 1012.4
20260902072409 15 148 0.0 0.0 0.00 0.00 0.00 94 1012.7
20260902071905 15 149 0.0 0.0 0.00 0.00 0.00 94 1012.6
20260902071404 15 148 0.0 0.0 0.00 0.00 0.00 93 1012.4
20260902070901 15 163 0.0 1.6 0.00 0.00 0.00 93 1012.6
20260902070356 15 154 0.0 0.0 0.00 0.00 0.00 93 1012.4
20260902065854 15 154 0.0 0.0 0.00 0.03 0.03 93 1012.8
20260902065349 15 149 0.0 1.6 0.00 0.03 0.03 93 1012.7
20260902064844 15 155 1.6 1.6 0.00 0.03 0.03 93 1012.7
20260902064341 15 148 0.0 0.0 0.00 0.03 0.03 92 1012.7
20260902063836 15 149 0.0 0.0 0.00 0.03 0.03 92 1012.8
20260902063331 15 147 0.0 0.0 0.00 0.03 0.03 92 1012.9
20260902062830 15 151 0.0 0.0 0.00 0.03 0.03 92 1012.9
20260902062325 15 156 0.0 1.6 0.00 0.03 0.03 92 1012.9
20260902061825 15 153 0.0 0.0 0.00 0.03 0.03 91 1012.9
20260902061320 15 148 0.0 1.6 0.00 0.03 0.03 91 1012.8
20260902060816 15 159 0.0 0.0 0.00 0.03 0.03 91 1013.1
20260902060312 15 160 0.0 0.0 0.00 0.03 0.03 90 1012.9
20260902055807 15 154 0.0 1.6 0.00 0.03 0.03 90 1012.8
20260902055258 15 131 3.2 3.2 0.00 0.03 0.03 90 1012.9
20260902054758 15 170 1.6 1.6 0.00 0.03 0.03 90 1013.1
20260902054254 15 170 0.0 1.6 0.00 0.03 0.03 89 1013.0
20260902053749 15 178 1.6 3.2 0.00 0.03 0.03 89 1013.2
20260902053248 15 157 1.6 8.0 0.00 0.03 0.03 89 1013.1
20260902052749 15 175 4.8 9.7 0.00 0.03 0.03 89 1013.2
20260902052244 15 195 3.2 3.2 0.00 0.03 0.03 90 1013.2
20260902051743 15 228 4.8 4.8 0.00 0.03 0.03 91 1013.4
20260902051238 15 211 3.2 8.0 0.00 0.03 0.03 92 1013.3
20260902050733 15 175 1.6 1.6 0.00 0.03 0.03 93 1013.1
20260902050228 15 153 0.0 3.2 0.00 0.03 0.03 94 1013.3
20260902045728 15 146 0.0 0.0 0.00 0.03 0.03 95 1013.1
20260902045224 15 157 0.0 0.0 0.00 0.03 0.03 95 1013.1
20260902044720 15 156 0.0 0.0 0.00 0.03 0.03 95 1013.2
20260902044215 15 152 0.0 0.0 0.00 0.03 0.03 95 1013.3
20260902043715 15 153 0.0 0.0 0.00 0.03 0.03 95 1013.2
20260902043211 15 152 0.0 0.0 0.00 0.03 0.03 95 1013.2
20260902042710 15 148 0.0 0.0 0.00 0.03 0.03 95 1013.4
20260902042205 15 148 0.0 0.0 0.00 0.03 0.03 95 1013.3
20260902041700 15 152 0.0 0.0 0.00 0.03 0.03 95 1013.1
20260902041154 15 149 0.0 0.0 0.00 0.03 0.03 94 1013.3
20260902040654 15 153 0.0 0.0 0.00 0.03 0.03 94 1013.3
20260902040149 15 147 0.0 0.0 0.00 0.03 0.03 94 1013.2
20260902035647 15 143 0.0 0.0 0.00 0.03 0.03 94 1013.4
20260902035144 15 140 0.0 0.0 0.00 0.03 0.03 94 1013.3
20260902034643 15 133 1.6 1.6 0.00 0.03 0.03 94 1013.3
20260902034143 15 130 1.6 1.6 0.00 0.03 0.03 93 1013.1
20260902033642 15 147 0.0 0.0 0.00 0.03 0.03 93 1013.2
20260902033137 15 143 0.0 0.0 0.00 0.03 0.03 93 1013.0
20260902032635 15 152 0.0 0.0 0.00 0.03 0.03 93 1013.2
20260902032135 15 139 0.0 1.6 0.00 0.03 0.03 92 1013.2
20260902031630 15 144 0.0 0.0 0.00 0.03 0.03 92 1013.0
20260902031126 15 145 1.6 1.6 0.00 0.03 0.03 92 1013.1
20260902030622 15 144 0.0 0.0 0.00 0.03 0.03 91 1013.0
20260902030121 15 172 3.2 3.2 0.00 0.03 0.03 91 1013.1
20260902025620 15 90 1.6 1.6 0.00 0.03 0.03 91 1012.8
20260902025116 15 160 0.0 3.2 0.18 0.03 0.03 90 1013.0
20260902024611 15 160 1.6 8.0 0.00 0.00 0.00 89 1013.1
20260902024106 15 187 1.6 4.8 0.00 0.00 0.00 88 1013.0
20260902023602 16 157 6.4 9.7 0.00 0.00 0.00 86 1013.1
20260902023057 16 154 1.6 9.7 0.00 0.00 0.00 85 1013.1
20260902022556 16 216 11.3 20.9 0.00 0.00 0.00 82 1013.0
20260902022053 16 190 8.0 24.1 0.00 0.00 0.00 81 1012.8
20260902021547 17 119 8.0 9.7 0.00 0.00 0.00 81 1013.1
20260902021042 17 197 1.6 3.2 0.00 0.00 0.00 80 1012.9
20260902020538 17 124 8.0 11.3 0.00 0.00 0.00 81 1012.8
20260902020034 17 179 3.2 8.0 0.00 0.00 0.00 80 1012.8
20260902015530 17 187 1.6 4.8 0.00 0.00 0.00 80 1012.8
20260902015025 17 195 3.2 4.8 0.00 0.00 0.00 80 1012.8
20260902014521 17 183 3.2 4.8 0.00 0.00 0.00 80 1012.8
20260902014016 17 199 6.4 8.0 0.00 0.00 0.00 80 1012.8
20260902013511 17 159 1.6 4.8 0.00 0.00 0.00 79 1012.8
20260902013007 17 147 3.2 4.8 0.00 0.00 0.00 79 1012.7
20260902012502 17 168 3.2 3.2 0.00 0.00 0.00 79 1012.8
20260902011957 17 191 4.8 11.3 0.00 0.00 0.00 78 1012.7
20260902011453 17 201 3.2 4.8 0.00 0.00 0.00 78 1012.8
20260902010952 17 158 1.6 4.8 0.00 0.00 0.00 79 1012.6
20260902010447 17 181 1.6 8.0 0.00 0.00 0.00 80 1012.8
20260902005946 17 191 6.4 11.3 0.00 0.00 0.00 80 1012.9
20260902005445 17 156 4.8 9.7 0.00 0.00 0.00 79 1012.9
20260902004942 17 160 4.8 4.8 0.00 0.00 0.00 79 1013.1
20260902004441 17 202 9.7 12.9 0.00 0.00 0.00 78 1013.0
20260902003937 17 173 1.6 8.0 0.00 0.00 0.00 77 1012.8
20260902003436 17 199 4.8 9.7 0.00 0.00 0.00 77 1012.9
20260902002932 17 165 4.8 8.0 0.00 0.00 0.00 77 1012.8
20260902002426 17 219 8.0 11.3 0.00 0.00 0.00 78 1012.9
20260902001926 17 205 4.8 8.0 0.00 0.00 0.00 80 1012.9
20260902001421 17 158 6.4 11.3 0.00 0.00 0.00 81 1013.0
20260902000916 17 197 4.8 9.7 0.00 0.00 0.00 81 1012.9
20260902000411 17 156 1.6 4.8 0.00 0.00 0.00 80 1012.8
20260901235907 17 148 1.6 9.7 0.00 0.00 0.00 81 1012.9
20260901235406 17 155 4.8 9.7 0.00 0.00 0.00 81 1012.7
20260901234901 17 172 6.4 17.7 0.00 0.00 0.00 80 1012.9
20260901234355 17 199 4.8 11.3 0.00 0.00 0.00 79 1013.0
20260901233850 17 220 8.0 12.9 0.00 0.00 0.00 78 1013.0
20260901233346 18 199 11.3 16.1 0.00 0.00 0.00 77 1012.7
20260901232842 18 196 8.0 11.3 0.00 0.00 0.00 77 1012.9
20260901232337 18 286 9.7 12.9 0.00 0.00 0.00 77 1012.9
20260901231832 17 211 8.0 14.5 0.00 0.00 0.00 77 1012.8
20260901231329 17 193 8.0 12.9 0.00 0.00 0.00 78 1013.0
20260901230825 17 224 3.2 4.8 0.00 0.00 0.00 79 1012.9
20260901230324 17 169 1.6 11.3 0.00 0.00 0.00 79 1012.9
20260901225820 17 216 6.4 11.3 0.00 0.00 0.00 79 1012.7
20260901225319 17 188 6.4 12.9 0.00 0.00 0.00 79 1012.8
20260901224814 17 166 4.8 8.0 0.00 0.00 0.00 79 1013.0
20260901224311 17 191 4.8 8.0 0.00 0.00 0.00 78 1012.8
20260901223808 17 216 4.8 11.3 0.00 0.00 0.00 78 1012.9
20260901223308 17 176 3.2 4.8 0.00 0.00 0.00 78 1012.8
20260901222803 17 186 6.4 11.3 0.00 0.00 0.00 78 1012.9
20260901222254 17 182 11.3 12.9 0.00 0.00 0.00 77 1013.1
20260901221750 17 200 8.0 14.5 0.00 0.00 0.00 77 1013.0
20260901221245 17 150 8.0 9.7 0.00 0.00 0.00 77 1012.9
20260901220744 17 205 6.4 8.0 0.00 0.00 0.00 78 1013.0
20260901220238 17 189 11.3 11.3 0.00 0.00 0.00 78 1013.0
20260901215737 17 201 8.0 11.3 0.00 0.00 0.00 77 1012.9
20260901215231 17 145 4.8 8.0 0.00 0.00 0.00 77 1012.9
20260901214730 17 159 1.6 8.0 0.00 0.00 0.00 77 1013.0
20260901214229 17 241 9.7 11.3 0.00 0.00 0.00 76 1013.0
20260901213729 18 184 6.4 9.7 0.00 0.00 0.00 76 1013.0
20260901213224 18 183 8.0 9.7 0.00 0.00 0.00 75 1013.0
20260901212723 18 176 0.0 3.2 0.00 0.00 0.00 75 1012.9
20260901212219 18 156 8.0 12.9 0.00 0.00 0.00 75 1013.1
20260901211714 18 194 8.0 14.5 0.00 0.00 0.00 75 1012.9
20260901211211 18 172 4.8 9.7 0.00 0.00 0.00 76 1012.9
20260901210706 18 216 4.8 11.3 0.00 0.00 0.00 76 1013.1
20260901210201 17 184 3.2 8.0 0.00 0.00 0.00 76 1013.1
20260901205657 18 223 4.8 8.0 0.00 0.00 0.00 76 1013.0
20260901205152 18 250 3.2 14.5 0.00 0.00 0.00 76 1013.1
20260901204647 17 143 4.8 9.7 0.00 0.00 0.00 76 1013.2
20260901204142 17 198 4.8 11.3 0.00 0.00 0.00 76 1013.2
20260901203636 17 152 3.2 8.0 0.00 0.00 0.00 76 1013.1
20260901203131 17 145 1.6 11.3 0.00 0.00 0.00 76 1013.2
20260901202631 17 193 6.4 14.5 0.00 0.00 0.00 75 1013.2
20260901202127 18 174 6.4 11.3 0.00 0.00 0.00 75 1013.1
20260901201623 17 226 6.4 9.7 0.00 0.00 0.00 76 1013.1
20260901201122 17 203 6.4 9.7 0.00 0.00 0.00 76 1013.2
20260901200621 17 212 4.8 4.8 0.00 0.00 0.00 76 1013.2
20260901200116 18 223 4.8 4.8 0.00 0.00 0.00 76 1013.2
20260901195614 18 181 1.6 8.0 0.00 0.00 0.00 75 1013.3
20260901195114 18 115 1.6 4.8 0.00 0.00 0.00 75 1013.2
20260901194609 18 200 3.2 8.0 0.00 0.00 0.00 75 1013.2
20260901194105 18 176 3.2 4.8 0.00 0.00 0.00 75 1013.3
20260901193600 18 218 4.8 8.0 0.00 0.00 0.00 74 1013.1
20260901193054 18 200 4.8 8.0 0.00 0.00 0.00 75 1013.1
20260901192549 18 205 3.2 8.0 0.00 0.00 0.00 75 1013.3
20260901192045 18 193 4.8 9.7 0.00 0.00 0.00 73 1013.0
20260901191541 18 164 3.2 9.7 0.00 0.00 0.00 74 1013.3
20260901191037 18 165 8.0 11.3 0.00 0.00 0.00 74 1013.4
20260901190532 18 160 0.0 1.6 0.00 0.00 0.00 76 1013.3
20260901190032 18 172 4.8 8.0 0.00 0.00 0.00 76 1013.6
20260901185530 18 170 4.8 4.8 0.00 0.00 0.00 75 1013.4
20260901185029 18 191 3.2 9.7 0.00 0.00 0.00 75 1013.3
20260901184525 18 150 3.2 9.7 0.00 0.00 0.00 76 1013.6
20260901184020 17 201 4.8 8.0 0.00 0.00 0.00 76 1013.5
20260901183515 17 187 4.8 4.8 0.00 0.00 0.00 77 1013.6
20260901183011 17 176 6.4 11.3 0.00 0.00 0.00 76 1013.5
20260901182507 17 250 8.0 12.9 0.00 0.00 0.00 76 1013.5
20260901182007 17 191 4.8 9.7 0.00 0.00 0.00 76 1013.3
20260901181506 17 165 3.2 8.0 0.00 0.00 0.00 76 1013.4
20260901181005 17 174 0.0 4.8 0.00 0.00 0.00 77 1013.5
20260901180504 17 226 6.4 8.0 0.00 0.00 0.00 77 1013.2
20260901180003 17 201 8.0 9.7 0.00 0.00 0.00 77 1013.4
20260901175458 17 193 4.8 8.0 0.00 0.00 0.00 78 1013.2
20260901174953 17 159 1.6 9.7 0.00 0.00 0.00 79 1013.3
20260901174448 17 255 4.8 8.0 0.00 0.00 0.00 79 1013.1
20260901173944 17 199 4.8 11.3 0.00 0.00 0.00 79 1013.0
20260901173439 17 216 8.0 9.7 0.00 0.00 0.00 79 1013.1
20260901172936 17 179 4.8 11.3 0.00 0.00 0.00 78 1013.0
20260901172431 17 206 8.0 11.3 0.00 0.00 0.00 77 1013.2
20260901171929 17 176 4.8 9.7 0.00 0.00 0.00 77 1013.3
20260901171427 17 186 3.2 9.7 0.00 0.00 0.00 79 1012.9
20260901170926 17 179 8.0 11.3 0.00 0.00 0.00 79 1013.1
20260901170416 16 180 1.6 11.3 0.00 0.00 0.00 80 1013.2
20260901165915 16 188 6.4 11.3 0.00 0.00 0.00 81 1013.1
20260901165409 16 187 6.4 11.3 0.00 0.00 0.00 81 1013.0
20260901164901 16 173 4.8 4.8 0.00 0.00 0.00 82 1013.3
20260901164355 16 212 6.4 9.7 0.00 0.00 0.00 82 1013.4
20260901163855 16 199 4.8 9.7 0.00 0.00 0.00 83 1013.4
20260901163350 16 172 0.0 4.8 0.00 0.00 0.00 84 1013.4
20260901162845 16 174 3.2 11.3 0.00 0.00 0.00 84 1013.4
20260901162344 16 170 6.4 8.0 0.00 0.00 0.00 84 1013.1
20260901161843 15 173 3.2 9.7 0.00 0.00 0.00 85 1013.4
20260901161338 15 188 4.8 8.0 0.00 0.00 0.00 85 1013.4
20260901160833 15 185 0.0 9.7 0.00 0.00 0.00 85 1013.4
20260901160330 15 209 4.8 9.7 0.00 0.00 0.00 86 1013.3
20260901155828 15 161 3.2 11.3 0.00 0.00 0.00 86 1013.4
20260901155323 15 131 1.6 4.8 0.00 0.00 0.00 87 1013.3
20260901154820 15 204 4.8 4.8 0.00 0.00 0.00 87 1013.5
20260901154313 15 168 3.2 4.8 0.00 0.00 0.00 88 1013.4
20260901153808 15 190 4.8 9.7 0.00 0.00 0.00 88 1013.5
20260901153308 15 155 4.8 4.8 0.00 0.00 0.00 89 1013.7
20260901152807 15 207 3.2 8.0 0.00 0.00 0.00 89 1013.6
20260901152306 15 155 1.6 4.8 0.00 0.00 0.00 89 1013.7
20260901151802 15 135 4.8 4.8 0.00 0.00 0.00 89 1013.4
20260901151301 15 190 4.8 4.8 0.00 0.00 0.00 90 1013.5
20260901150755 15 187 3.2 4.8 0.00 0.00 0.00 90 1013.7
20260901150253 15 193 4.8 4.8 0.00 0.00 0.00 90 1013.5
20260901145751 15 189 8.0 9.7 0.00 0.00 0.00 91 1013.6
20260901145245 15 169 4.8 8.0 0.00 0.00 0.00 91 1013.3
20260901144741 14 200 4.8 4.8 0.00 0.00 0.00 92 1013.6
20260901144236 14 229 4.8 9.7 0.00 0.00 0.00 92 1013.2
20260901143732 14 183 3.2 11.3 0.00 0.00 0.00 93 1013.3
20260901143227 14 161 6.4 9.7 0.00 0.00 0.00 93 1013.2
20260901142724 14 205 1.6 4.8 0.00 0.00 0.00 94 1013.2
20260901142223 14 173 1.6 1.6 0.00 0.00 0.00 94 1013.2
20260901141719 14 180 1.6 4.8 0.00 0.00 0.00 95 1013.2
20260901141219 13 169 1.6 3.2 0.00 0.00 0.00 95 1013.0
20260901140718 13 146 3.2 3.2 0.00 0.00 0.00 95 1013.0
20260901140217 13 169 4.8 4.8 0.00 0.00 0.00 96 1012.9
20260901135712 13 172 1.6 4.8 0.00 0.00 0.00 96 1012.7
20260901135211 13 203 4.8 8.0 0.00 0.00 0.00 96 1013.1
20260901134708 13 150 1.6 4.8 0.00 0.00 0.00 96 1012.8
20260901134202 13 186 1.6 3.2 0.00 0.00 0.00 96 1012.8
20260901133702 13 173 0.0 4.8 0.00 0.00 0.00 96 1012.9
20260901133201 13 157 0.0 1.6 0.00 0.00 0.00 96 1013.1
20260901132700 12 150 1.6 4.8 0.00 0.00 0.00 97 1013.1
20260901132155 12 136 1.6 4.8 0.00 0.00 0.00 97 1012.9
20260901131650 11 162 0.0 0.0 0.00 0.00 0.00 96 1013.0
20260901131149 12 161 0.0 0.0 0.00 0.00 0.00 96 1012.8
20260901130644 12 149 0.0 0.0 0.00 0.00 0.00 96 1012.8
20260901130143 11 152 0.0 0.0 0.00 0.00 0.00 96 1013.1
20260901125641 11 152 0.0 0.0 0.00 0.00 0.00 96 1012.8
20260901125136 12 146 0.0 0.0 0.00 0.00 0.00 96 1012.9
20260901124632 11 155 0.0 0.0 0.00 0.00 0.00 96 1012.8
20260901124131 11 169 0.0 0.0 0.00 0.00 0.00 96 1012.7
20260901123626 11 154 0.0 0.0 0.00 0.00 0.00 96 1012.7
20260901123126 12 154 0.0 0.0 0.00 0.00 0.00 96 1012.7
20260901122624 12 154 0.0 0.0 0.00 0.00 0.00 96 1012.7
20260901122119 12 153 0.0 0.0 0.00 0.00 0.00 96 1012.4
20260901121614 12 153 0.0 0.0 0.00 0.00 0.00 96 1012.7
20260901121109 12 153 0.0 0.0 0.00 0.00 0.00 96 1012.7
20260901120608 12 146 0.0 0.0 0.00 0.00 0.00 96 1012.5
20260901120104 12 157 0.0 0.0 0.00 0.00 0.00 96 1012.5
20260901115559 12 147 0.0 0.0 0.00 0.00 0.00 96 1012.3
20260901115055 12 154 0.0 0.0 0.00 0.00 0.00 96 1012.1
20260901114551 12 148 0.0 0.0 0.00 0.00 0.00 96 1012.3
20260901114050 12 154 0.0 0.0 0.00 0.00 0.00 96 1012.2
20260901113549 12 151 0.0 0.0 0.00 0.00 0.00 96 1012.2
20260901113045 12 156 0.0 0.0 0.00 0.00 0.00 95 1012.3
20260901112545 12 158 0.0 0.0 0.00 0.00 0.00 95 1012.2
20260901112039 12 148 0.0 0.0 0.00 0.00 0.00 96 1012.2
20260901111538 12 148 0.0 0.0 0.00 0.00 0.00 96 1012.0
20260901111037 12 149 0.0 0.0 0.00 0.00 0.00 95 1012.3
20260901110533 12 147 0.0 0.0 0.00 0.00 0.00 95 1012.2
20260901110028 12 152 0.0 0.0 0.00 0.00 0.00 95 1012.0
20260901105525 12 149 0.0 0.0 0.00 0.00 0.00 95 1012.2
20260901105024 12 148 0.0 0.0 0.00 0.00 0.00 95 1012.2
20260901104521 12 149 0.0 0.0 0.00 0.00 0.00 95 1012.3
20260901104015 12 149 0.0 0.0 0.00 0.00 0.00 95 1012.1
20260901103510 12 150 0.0 0.0 0.00 0.00 0.00 95 1012.0
20260901103006 12 152 0.0 0.0 0.00 0.00 0.00 95 1012.1
20260901102505 12 152 0.0 0.0 0.00 0.00 0.00 95 1012.1
20260901102000 12 152 0.0 0.0 0.00 0.00 0.00 95 1012.1
20260901101455 12 152 0.0 0.0 0.00 0.00 0.00 95 1012.2
20260901100949 12 152 0.0 0.0 0.00 0.00 0.00 95 1012.1
20260901100444 12 152 0.0 0.0 0.00 0.00 0.00 95 1012.2
20260901095938 12 152 0.0 0.0 0.00 0.00 0.00 95 1011.9
20260901095437 12 152 0.0 0.0 0.00 0.00 0.00 95 1011.8
20260901094930 12 152 0.0 0.0 0.00 0.00 0.00 94 1011.8
20260901094429 12 151 0.0 0.0 0.00 0.00 0.00 94 1011.9
20260901093924 12 152 0.0 0.0 0.00 0.00 0.00 94 1011.8
20260901093423 12 153 0.0 0.0 0.00 0.00 0.00 94 1011.7
20260901092913 12 152 0.0 0.0 0.00 0.00 0.00 94 1011.8
20260901092409 12 151 0.0 0.0 0.00 0.00 0.00 94 1011.9
20260901091904 12 152 0.0 0.0 0.00 0.00 0.00 94 1011.6
20260901091358 12 151 0.0 0.0 0.00 0.00 0.00 94 1011.6
20260901090853 12 150 0.0 0.0 0.00 0.00 0.00 93 1011.8
20260901090348 12 150 0.0 0.0 0.00 0.00 0.00 93 1011.8
20260901085844 12 150 0.0 0.0 0.00 0.00 0.00 93 1011.8
20260901085339 12 147 0.0 0.0 0.00 0.00 0.00 93 1011.8
20260901084835 13 153 0.0 0.0 0.00 0.00 0.00 93 1011.8
20260901084331 13 156 0.0 0.0 0.00 0.00 0.00 93 1011.7
20260901083826 13 140 0.0 0.0 0.00 0.00 0.00 93 1011.7
20260901083321 13 153 0.0 0.0 0.00 0.00 0.00 93 1011.6
20260901082819 13 151 0.0 0.0 0.00 0.00 0.00 93 1011.6
20260901082315 13 152 0.0 0.0 0.00 0.00 0.00 93 1011.7
20260901081809 13 154 0.0 0.0 0.00 0.00 0.00 93 1011.6